[[{"header":{"parameterUnit":"m.s-1","parameterCategory":1,"la1":30.2992,"la2":30.254,"lo1":-89.0895,"lo2":-89.0443,"dy":0.0025,"dx":0.0025,"nx":19,"ny":19,"refTime":"2026-03-29T09:00:00:Z","depth":0,"parameterNumber":2,"parameterNumberName":"U-component_of_WINDS"},"data":[0,0,0,-7.7073,-7.7076,-7.7169,-7.7169,-7.733,-7.7331,0,0,0,0,0,0,0,0,0,0,0,-7.7071,-7.7073,-7.7073,-7.7076,-7.7169,-7.7169,-7.7329,-7.7331,0,0,0,0,0,0,0,0,0,0,0,-7.707,-7.7073,-7.7075,-7.7076,-7.7169,-7.7169,-7.7329,-7.7244,0,0,0,0,0,0,0,0,0,0,-7.7146,-7.717,-7.7072,-7.7075,-7.7077,-7.7169,-7.7169,-7.7239,-7.7249,-7.7305,0,-7.7364,0,-7.7351,-7.7345,-7.7346,0,0,0,-7.7056,-7.7162,-7.7164,-7.7076,-7.7078,-7.7169,-7.7121,-7.7244,-7.7256,-7.7319,-7.7366,-7.737,-7.7353,-7.7346,-7.7347,-7.7743,-7.7746,0,0,-7.7051,-7.7102,-7.7156,-7.7172,-7.7162,-7.7119,-7.7125,-7.725,-7.7304,-7.7366,-7.7373,-7.7356,-7.7348,-7.7349,-7.7741,-7.7744,0,0,0,-7.705,-7.7099,-7.7097,-7.7167,-7.7181,-7.7122,-7.7129,-7.7298,-7.7293,-7.7375,-7.7358,-7.7349,-7.7351,-7.7737,-7.7742,-7.7928,0,0,0,-7.7045,-7.7098,-7.7096,-7.7128,-7.718,-7.7241,-7.7175,-7.7284,-7.7297,-7.7357,-7.7349,-7.7353,-7.7734,-7.774,-7.7917,-7.8007,0,0,0,-7.7056,-7.7099,-7.7122,-7.713,-7.7173,-7.7238,-7.7239,-7.7286,-7.7288,-7.7346,-7.7354,-7.7732,-7.7739,-7.7906,-7.799,-7.8125,0,0,0,-7.7082,-7.7285,-7.7126,-7.7346,-7.7172,-7.7354,-7.7238,-7.737,-7.7442,-7.735,-7.7735,-7.7741,-7.7903,-7.7979,-7.8115,-7.8248,-7.8309,0,0,-7.7366,-7.7321,-7.7447,-7.7307,-7.753,-7.7335,-7.7585,-7.7602,-7.7561,-7.7684,-7.7693,-7.792,-7.7988,-7.8123,-7.8636,-7.8684,0,0,0,-7.7554,-7.7645,-7.7693,-7.7766,-7.7786,-7.7809,-7.7783,-7.779,-7.7893,-7.7635,-7.8006,-7.8045,-7.8122,-7.8182,-7.8224,-7.8286,-7.7772,-7.7772,-7.7771,-7.8027,-7.7966,-7.8169,-7.812,-7.8192,-7.8164,-7.8216,-7.822,-7.8135,-7.8224,-7.8259,-7.8578,-7.8652,-7.8682,-7.8748,-7.8326,-7.8327,-7.8328,-7.8328,-7.8437,-7.8555,-7.8441,-7.8597,-7.853,-7.866,-7.8643,-7.8579,-7.869,-7.8546,-7.861,-7.8456,-7.8738,-7.8792,-7.8342,-7.8339,-7.8338,-7.8336,-7.8335,-7.8737,-7.8783,-7.879,-7.8889,-7.8973,-7.8915,-7.9028,-7.8963,-7.8903,-7.8967,-7.8997,-7.8993,-7.898,-7.8987,-7.8988,-7.8989,-7.899,-7.899,-7.8991,-7.9045,-7.9047,-7.915,-7.9192,-7.923,-7.9273,-7.925,-7.9286,-7.9308,-7.9252,-7.9252,-7.9158,-7.8778,-7.8683,-7.9008,-7.9005,-7.9003,-7.9001,-7.9,-7.9478,-7.9371,-7.9531,-7.957,-7.9613,-7.9701,-7.9618,-7.9698,-7.9718,-7.9776,-7.9669,-7.94,-7.9348,-7.9314,-7.9235,-7.9683,-7.9683,-7.9683,-7.9683,-7.973,-7.9699,-7.9848,-7.9916,-7.9974,-7.9917,-8.0099,-8.0085,-8.0052,-8.0061,-7.9987,-7.9877,-7.9846,-7.9812,-7.9768,-7.9692,-8.0247,-8.0248,-8.0248,-7.9992,-7.9964,-8.0132,-8.0101,-8.013,-8.0157,-8.0326,-8.0407,-8.0348,-8.027,-8.0066,-8.0042,-7.9864,-7.9809,-7.9723,-7.9656,-7.9516,0,0]},{"header":{"parameterUnit":"m.s-1","parameterCategory":1,"la1":30.2992,"la2":30.254,"lo1":-89.0895,"lo2":-89.0443,"dy":0.0025,"dx":0.0025,"nx":19,"ny":19,"refTime":"2026-03-29T09:00:00:Z","depth":0,"parameterNumber":3,"parameterNumberName":"V-component_of_WINDS"},"data":[0,0,0,1.6847,1.6846,1.6813,1.6813,1.6765,1.6765,0,0,0,0,0,0,0,0,0,0,0,1.6854,1.6854,1.6847,1.6846,1.6813,1.6813,1.6765,1.6765,0,0,0,0,0,0,0,0,0,0,0,1.6854,1.6854,1.6853,1.6846,1.6813,1.6813,1.6765,1.6792,0,0,0,0,0,0,0,0,0,0,1.6824,1.683,1.6854,1.6853,1.6845,1.6813,1.6813,1.6793,1.679,1.6778,0,1.6768,0,1.6766,1.6761,1.6761,0,0,0,1.6846,1.6832,1.6826,1.6853,1.6845,1.6813,1.6828,1.6791,1.6788,1.6774,1.6768,1.6766,1.6765,1.6761,1.6761,1.6695,1.6695,0,0,1.6848,1.6846,1.6828,1.6823,1.683,1.6829,1.6827,1.6789,1.6781,1.6768,1.6765,1.6764,1.6761,1.676,1.6696,1.6695,0,0,0,1.6853,1.6847,1.6842,1.6825,1.682,1.6828,1.6826,1.6783,1.6782,1.6764,1.6764,1.676,1.676,1.6696,1.6696,1.6678,0,0,0,1.6854,1.685,1.6843,1.6841,1.6821,1.6801,1.682,1.6784,1.678,1.6764,1.676,1.6759,1.6697,1.6696,1.6679,1.6669,0,0,0,1.6857,1.6851,1.6846,1.6841,1.6828,1.6802,1.6798,1.6783,1.678,1.6761,1.6759,1.6697,1.6696,1.668,1.6671,1.6652,0,0,0,1.6858,1.6828,1.6845,1.6811,1.6828,1.6793,1.6799,1.6772,1.6754,1.676,1.6697,1.6696,1.6681,1.6672,1.6653,1.6635,1.6627,0,0,1.6818,1.6823,1.6803,1.6818,1.678,1.6798,1.6756,1.674,1.6738,1.6709,1.6708,1.6679,1.6671,1.6652,1.6589,1.6583,0,0,0,1.679,1.6775,1.6766,1.675,1.674,1.673,1.6721,1.6716,1.6692,1.6724,1.6668,1.6663,1.6652,1.6643,1.6638,1.6629,1.6692,1.6692,1.6692,1.6728,1.6732,1.6699,1.67,1.6685,1.6679,1.6667,1.6658,1.6663,1.665,1.664,1.6602,1.6592,1.6588,1.6578,1.6632,1.6632,1.6632,1.6632,1.6669,1.6649,1.6662,1.6635,1.6639,1.6615,1.6609,1.6614,1.6593,1.6608,1.6599,1.6614,1.6582,1.6573,1.6631,1.6631,1.6631,1.6631,1.6631,1.6627,1.6619,1.6616,1.6597,1.6581,1.6583,1.6563,1.6567,1.6569,1.656,1.6551,1.6552,1.6552,1.6557,1.6556,1.6556,1.6556,1.6556,1.6556,1.6585,1.6582,1.6566,1.6556,1.6549,1.6539,1.6536,1.6527,1.6519,1.6523,1.6523,1.653,1.6579,1.659,1.6554,1.6554,1.6554,1.6555,1.6555,1.6521,1.6537,1.6512,1.6505,1.6495,1.648,1.6488,1.6472,1.6466,1.6456,1.6467,1.6503,1.6506,1.651,1.6519,1.6466,1.6466,1.6466,1.6466,1.6485,1.6489,1.6466,1.6455,1.6444,1.645,1.6421,1.6419,1.6419,1.6416,1.6425,1.6439,1.6443,1.6444,1.6449,1.6458,1.639,1.639,1.639,1.6446,1.645,1.6424,1.6428,1.6422,1.6416,1.6389,1.6375,1.6379,1.6387,1.6414,1.6417,1.6439,1.6446,1.6451,1.646,1.6476,0,0]}]]